Weather History for KHVN - September, 2013

Change the Weather History Date:

Sunday, September 1, 2013

  Actual Average Record
Temperature  
Mean Temperature 76 °F -  
Max Temperature 81 °F 75 °F 94 °F (1980)
Min Temperature 73 °F 60 °F 50 °F (1986)
Cooling Degree Days 12    
Growing Degree Days 26 (Base 50)    
Moisture  
Dew Point 72 °F    
Average Humidity 86    
Maximum Humidity 94    
Minimum Humidity 79    
Precipitation  
Precipitation 0.00 in - - ()
Sea Level Pressure  
Sea Level Pressure 29.85 in    
Wind  
Wind Speed 4 mph (South)    
Max Wind Speed 13 mph    
Max Gust Speed -    
Visibility 10 miles    
Events      
Averages and records for this station are not official NWS values.
T = Trace of Precipitation, MM = Missing Value Source: NWS Daily Summary

Daily Weather History Graph

Daily Weather History Graph

Search for Another Location

Airport or City:

Trip Planner

Search our weather history database for the weather conditions in past years. The results will help you decide how hot, cold, wet, or windy it might be!

Date:

Astronomy

Sep. 01, 2013 Rise Set
Actual Time 6:18 AM EDT 7:23 PM EDT
Civil Twilight 5:49 AM EDT 7:52 PM EDT
Nautical Twilight 5:15 AM EDT 8:25 PM EDT
Astronomical Twilight 4:40 AM EDT 9:01 PM EDT
Moon 2:36 AM EDT (9/1) 5:00 PM EDT (9/1)
Length of Visible Light 14h 02m
Length of Day
13h 05m
Waning Crescent, 14% of the Moon is Illuminated
Sep 1
Waning Crescent
Sep 5
New
Sep 12
First Quarter
Sep 19
Full
Sep 26
Last Quarter

Hourly Weather History & Observations

Time (EDT) Temp. Heat Index Dew Point Humidity Pressure Visibility Wind Dir Wind Speed Gust Speed Precip Events Conditions
12:53 AM 75.0 °F - 71.1 °F 87% 29.84 in 10.0 mi Calm Calm - N/A   Haze
1:53 AM 75.0 °F - 72.0 °F 90% 29.84 in 10.0 mi Calm Calm - N/A   Haze
2:53 AM 75.0 °F - 72.0 °F 90% 29.83 in 10.0 mi Calm Calm - N/A   Haze
3:53 AM 73.9 °F - 71.1 °F 91% 29.83 in 10.0 mi Calm Calm - N/A   Haze
4:22 AM 73.4 °F - 71.6 °F 94% 29.82 in 10.0 mi South 3.5 mph - N/A   Haze
4:32 AM 73.4 °F - 71.6 °F 94% 29.82 in 10.0 mi SSW 3.5 mph - N/A   Haze
4:48 AM 73.4 °F - 71.6 °F 94% 29.82 in 10.0 mi Calm Calm - N/A   Haze
4:53 AM 73.9 °F - 71.1 °F 91% 29.82 in 10.0 mi Variable 3.5 mph - N/A   Haze
5:15 AM 73.4 °F - 71.6 °F 94% 29.83 in 10.0 mi Calm Calm - N/A   Haze
5:53 AM 75.0 °F - 72.0 °F 90% 29.84 in 10.0 mi Calm Calm - N/A   Overcast
6:53 AM 73.9 °F - 72.0 °F 93% 29.86 in 5.0 mi SSW 3.5 mph - N/A   Haze
7:53 AM 75.0 °F - 72.0 °F 90% 29.86 in 5.0 mi SSW 4.6 mph - N/A   Haze
8:06 AM 75.2 °F - 71.6 °F 89% 29.86 in 7.0 mi SSW 3.5 mph - N/A   Mostly Cloudy
8:53 AM 75.0 °F - 72.0 °F 90% 29.86 in 7.0 mi SSW 4.6 mph - N/A   Overcast
9:53 AM 77.0 °F - 72.0 °F 84% 29.86 in 7.0 mi SSW 6.9 mph - N/A   Mostly Cloudy
10:53 AM 80.1 °F 84.2 °F 73.0 °F 79% 29.87 in 10.0 mi South 6.9 mph - N/A   Overcast
11:00 AM 80.6 °F 85.4 °F 73.4 °F 79% 29.86 in 10.0 mi South 6.9 mph - N/A   Mostly Cloudy
11:53 AM 80.1 °F 84.2 °F 73.0 °F 79% 29.87 in 10.0 mi South 11.5 mph - N/A   Overcast
12:00 PM 80.6 °F 85.4 °F 73.4 °F 79% 29.86 in 10.0 mi South 11.5 mph - N/A   Overcast
12:08 PM 80.6 °F 85.4 °F 73.4 °F 79% 29.86 in 10.0 mi South 12.7 mph - N/A   Overcast
12:31 PM 80.6 °F 85.4 °F 73.4 °F 79% 29.85 in 10.0 mi South 10.4 mph - N/A   Overcast
12:53 PM 79.0 °F - 73.0 °F 82% 29.86 in 10.0 mi South 8.1 mph - N/A   Overcast
1:11 PM 78.8 °F - 73.4 °F 83% 29.86 in 10.0 mi South 6.9 mph - N/A   Overcast
1:53 PM 80.1 °F 84.2 °F 73.0 °F 79% 29.85 in 10.0 mi SSE 9.2 mph - N/A   Overcast
2:53 PM 80.1 °F 84.2 °F 73.0 °F 79% 29.85 in 10.0 mi SE 6.9 mph - N/A   Overcast
3:09 PM 80.6 °F 85.4 °F 73.4 °F 79% 29.84 in 10.0 mi SE 9.2 mph - N/A   Overcast
3:53 PM 79.0 °F - 73.0 °F 82% 29.84 in 10.0 mi SE 8.1 mph - N/A   Overcast
4:00 PM 80.6 °F 85.4 °F 73.4 °F 79% 29.84 in 10.0 mi SE 6.9 mph - N/A   Overcast
4:53 PM 79.0 °F - 73.0 °F 82% 29.83 in 10.0 mi SSE 9.2 mph - N/A   Mostly Cloudy
5:53 PM 78.1 °F - 73.0 °F 84% 29.84 in 10.0 mi SSE 9.2 mph - N/A   Mostly Cloudy
6:00 PM 78.8 °F - 73.4 °F 83% 29.84 in 10.0 mi South 6.9 mph - N/A   Mostly Cloudy
6:53 PM 77.0 °F - 73.0 °F 88% 29.84 in 10.0 mi SSE 8.1 mph - N/A   Mostly Cloudy
7:53 PM 75.9 °F - 73.0 °F 91% 29.83 in 10.0 mi SSE 5.8 mph - N/A   Mostly Cloudy
8:53 PM 75.9 °F - 73.0 °F 91% 29.85 in 10.0 mi South 4.6 mph - N/A   Overcast
9:53 PM 75.9 °F - 72.0 °F 87% 29.86 in 10.0 mi SSE 4.6 mph - N/A   Mostly Cloudy
10:09 PM 75.2 °F - 71.6 °F 89% 29.85 in 10.0 mi SSE 4.6 mph - N/A   Scattered Clouds
10:20 PM 75.2 °F - 73.4 °F 94% 29.86 in 10.0 mi South 6.9 mph - N/A   Mostly Cloudy
10:39 PM 75.2 °F - 71.6 °F 89% 29.85 in 10.0 mi South 4.6 mph - N/A   Overcast
10:53 PM 75.9 °F - 72.0 °F 87% 29.85 in 10.0 mi South 4.6 mph - N/A   Overcast
11:30 PM 75.2 °F - 71.6 °F 89% 29.84 in 10.0 mi SSE 5.8 mph - N/A   Overcast
11:53 PM 75.0 °F - 72.0 °F 90% 29.84 in 10.0 mi SE 8.1 mph - N/A   Overcast